SCP
-0 -0 -0 0 0 0 0 0 0 0 0 0 0 0 0 0 0 0 0 0 0 0 0 0 0 0 0 0 0 0 0 0
0 -0 -0 0 0 0 0 0 0 0 0 0 0 0 0 0 0 0 0 0 0 0 0 0 0 0 0 0 0 0 0 0
-0 -0 -0 0 0 0 0 0 0 -0 -0 -0 0 0 0 0 0 0 0 0 0 0 0 0 0 0 0 0 0 0 0 0
-0 -0 0 0 0 0 0 0 -0 -0 0 0 0 0 0 0 0 0 0 0 0 0 0 0 0 0 0 0 0 0 0 0
-0 -0 0 0 0 0 0 0 0 0 0 0 0 0 0 0 0 0 0 0 0 0 0 0 0 0 0 0 0 0 0 0
-0 -0 0 0 0 0 0 0 0 0 0 0 0 0 0 0 0 0 0 0 0 0 0 0 0 0 0 0 0 0 0 0
-0 0 0 0 0 0 0 0 0 0 0 0 0 0 0 0 0 0 0 0 0 0 0 0 0 0 0 0 0 0 0 0
-0 -0 0 0 0 0 0 0 0 0 0 0 0 0 0 0 0 0 0 0 0 0 0 0 0 0 0 0 0 0 0 0
-0 -0 0 0 0 0 0 0 0 0 0 0 0 0 0 0 0 0 0 0 0 0 0 0 0 0 0 0 0 0 0 0
-0 0 0 0 0 0 0 0 0 0 0 0 0 0 0 0 0 0 0 0 0 0 0 0 0 0 0 0 0 0 0 0
0 0 0 0 0 0 0 0 0 0 0 0 0 0 0 0 0 0 0 0 0 0 0 0 0 0 0 0 0 0 0 0
0 0 0 -0 0 0 0 0 0 0 0 0 0 0 0 0 0 0 0 0 0 0 0 0 0 0 0 0 0 0 0 0
0 0 0 0 -0 -0 0 0 0 0 0 0 0 0 0 0 0 0 0 0 0 0 0 0 0 0 0 0 0 0 0 0
0 0 0 0 0 -0 0 0 0 0 0 0 0 0 0 0 0 0 0 0 0 0 0 0 0 0 0 0 0 0 0 0
0 0 0 0 0 0 0 0 0 0 0 0 0 0 0 0 0 0 0 0 0 0 0 0 0 0 0 0 0 0 0 0
0 0 0 0 0 0 0 0 0 0 0 0 0 0 0 0 0 0 0 0 0 0 0 0 0 0 0 0 0 0 0 0
0 0 0 0 0 0 0 0 0 0 0 0 0 0 0 0 0 0 0 0 0 0 0 0 0 0 0 0 0 0 0 0
0 0 0 0 0 0 0 0 0 0 0 0 0 0 0 0 0 0 0 0 0 0 0 0 0 0 0 0 0 0 0 0
0 0 0 0 0 0 0 0 0 0 0 0 0 0 0 0 0 0 0 0 0 0 0 0 0 0 0 0 0 0 0 0
Wind_Speed_500mb
26 34 22 24 33 29 32 34 28 29 28 26 22 15 12 11 12 15 17 15 13 17 8 9 15 19 21 23 19 18 24 24
41 40 25 35 31 31 30 29 30 27 27 21 17 13 12 10 13 19 17 16 17 17 10 9 17 21 26 26 24 22 26 28
53 42 31 33 35 33 34 31 31 26 21 17 10 9 10 9 11 16 16 15 18 15 12 13 17 21 23 24 27 25 25 27
53 47 38 37 38 35 34 33 28 24 23 21 13 11 9 5 6 16 17 15 21 17 13 15 17 21 26 27 27 27 24 20
53 50 43 42 40 35 35 34 36 29 18 24 16 14 14 5 12 14 14 17 20 19 13 15 19 23 23 25 25 24 21 21
59 54 45 44 41 39 30 31 32 29 26 17 16 17 19 15 14 17 18 18 20 21 16 14 18 20 22 21 22 21 20 19
62 55 47 45 42 42 38 36 32 32 27 24 27 27 27 21 13 12 16 24 24 23 17 16 16 18 18 19 21 20 19 17
71 66 59 52 50 48 49 43 38 36 38 39 34 30 27 24 20 20 22 29 27 25 19 16 17 17 15 16 17 20 19 19
77 70 66 58 56 50 54 49 47 42 39 37 36 31 29 29 27 26 27 28 27 24 18 17 17 15 12 14 15 17 18 17
79 72 69 62 63 56 54 54 51 44 43 40 36 31 29 25 23 26 27 26 28 22 19 18 17 17 13 13 16 18 18 17
81 77 73 68 67 61 54 50 54 49 46 44 40 36 30 26 25 26 25 26 27 24 22 19 18 19 18 16 15 17 17 19
84 77 75 72 68 66 57 52 58 59 56 49 44 41 34 29 25 25 23 26 25 24 22 20 20 21 20 19 17 19 19 19
83 79 76 76 73 71 64 57 64 66 65 57 50 44 37 31 26 24 24 27 24 25 23 22 23 24 22 22 21 20 20 23
82 82 81 83 80 76 69 66 66 69 69 63 55 49 41 33 30 26 26 26 25 27 26 24 26 27 25 23 25 19 23 27
83 84 84 78 82 77 72 69 69 70 69 66 60 54 44 38 34 29 28 26 28 29 29 27 29 28 24 26 24 22 28 30
69 81 82 80 78 71 67 67 69 70 68 63 62 56 45 42 38 33 30 30 30 31 31 29 29 29 29 25 25 30 33 32
10 69 82 83 79 73 68 67 68 69 65 62 61 58 47 45 42 36 34 34 33 32 33 31 30 31 32 29 29 34 32 33
24 27 72 79 77 74 74 72 69 69 66 61 62 59 51 49 44 41 40 38 35 35 34 32 31 33 33 33 33 34 33 32
5 15 42 63 68 68 67 66 67 68 66 62 62 62 56 51 49 47 44 40 37 36 35 35 34 35 36 38 37 37 36 33
Wind_Direction_500mb
151 155 168 161 150 144 136 139 140 143 140 136 132 127 105 92 72 58 61 59 28 18 53 6 34 38 37 36 31 8 11 35
159 173 175 160 156 150 148 143 138 132 127 131 129 117 88 76 67 49 40 46 29 17 45 22 30 31 32 29 28 26 16 43
171 173 183 173 164 161 152 147 135 125 119 116 118 69 73 55 48 39 35 21 21 31 41 39 31 26 26 25 26 32 31 27
169 176 188 182 172 167 158 155 134 141 163 164 166 168 178 206 40 12 14 18 16 21 28 24 26 19 17 21 23 27 37 36
180 185 192 185 178 171 168 155 159 182 183 164 152 177 185 261 324 331 351 5 5 6 12 11 12 13 12 13 21 25 25 33
184 191 199 194 187 184 174 171 172 188 174 157 165 169 191 229 278 308 326 337 343 351 348 1 2 5 5 8 10 24 19 21
189 196 203 201 195 184 190 192 183 179 178 182 190 207 231 241 260 278 292 307 325 335 330 339 349 354 0 359 2 10 11 8
187 191 197 203 205 194 196 197 190 198 192 198 199 214 215 233 224 233 264 289 309 316 311 321 333 345 356 347 352 350 357 354
189 193 197 205 210 209 200 197 202 208 202 203 210 212 219 231 243 246 257 277 290 297 296 310 321 331 343 334 333 338 341 343
191 194 199 206 210 214 211 199 210 215 210 212 216 218 229 235 242 254 264 278 287 288 291 297 306 315 331 328 323 327 330 335
191 196 200 206 213 220 217 205 213 222 221 222 223 224 232 241 248 261 269 279 282 283 285 290 299 308 318 321 319 308 321 324
192 198 204 208 214 219 220 209 211 223 229 229 228 228 233 237 246 259 270 276 271 275 279 285 292 297 305 309 308 303 309 312
194 198 204 206 212 215 217 214 213 223 231 234 234 231 230 234 248 261 272 276 274 275 276 279 282 287 295 299 299 298 308 314
199 201 205 208 209 212 216 215 217 223 229 233 235 235 234 236 246 258 268 272 275 272 274 278 281 286 287 289 294 304 311 311
203 205 207 209 208 210 213 216 221 224 229 234 238 236 235 237 245 254 261 269 269 269 271 275 280 281 283 284 295 290 305 310
208 205 204 205 204 206 212 218 222 226 230 235 240 238 234 236 242 250 259 266 267 267 270 273 275 278 280 283 288 292 300 308
244 215 210 206 208 211 213 217 224 230 232 240 239 236 235 240 242 249 257 264 266 266 268 269 272 276 282 280 283 288 295 306
250 250 216 212 216 221 222 225 231 235 235 240 239 237 238 241 244 249 255 261 264 264 268 270 274 276 279 282 286 289 297 304
260 247 229 223 223 224 228 229 234 234 237 239 241 238 240 241 244 248 253 258 264 266 268 271 270 276 280 282 284 289 296 297
Wind_Speed_850mb
26 34 22 24 33 29 32 34 28 29 28 26 22 15 12 11 12 15 17 15 13 17 8 9 15 19 21 23 19 18 24 24
41 40 25 35 31 31 30 29 30 27 27 21 17 13 12 10 13 19 17 16 17 17 10 9 17 21 26 26 24 22 26 28
53 42 31 33 35 33 34 31 31 26 21 17 10 9 10 9 11 16 16 15 18 15 12 13 17 21 23 24 27 25 25 27
53 47 38 37 38 35 34 33 28 24 23 21 13 11 9 5 6 16 17 15 21 17 13 15 17 21 26 27 27 27 24 20
53 50 43 42 40 35 35 34 36 29 18 24 16 14 14 5 12 14 14 17 20 19 13 15 19 23 23 25 25 24 21 21
59 54 45 44 41 39 30 31 32 29 26 17 16 17 19 15 14 17 18 18 20 21 16 14 18 20 22 21 22 21 20 19
62 55 47 45 42 42 38 36 32 32 27 24 27 27 27 21 13 12 16 24 24 23 17 16 16 18 18 19 21 20 19 17
71 66 59 52 50 48 49 43 38 36 38 39 34 30 27 24 20 20 22 29 27 25 19 16 17 17 15 16 17 20 19 19
77 70 66 58 56 50 54 49 47 42 39 37 36 31 29 29 27 26 27 28 27 24 18 17 17 15 12 14 15 17 18 17
79 72 69 62 63 56 54 54 51 44 43 40 36 31 29 25 23 26 27 26 28 22 19 18 17 17 13 13 16 18 18 17
81 77 73 68 67 61 54 50 54 49 46 44 40 36 30 26 25 26 25 26 27 24 22 19 18 19 18 16 15 17 17 19
84 77 75 72 68 66 57 52 58 59 56 49 44 41 34 29 25 25 23 26 25 24 22 20 20 21 20 19 17 19 19 19
83 79 76 76 73 71 64 57 64 66 65 57 50 44 37 31 26 24 24 27 24 25 23 22 23 24 22 22 21 20 20 23
82 82 81 83 80 76 69 66 66 69 69 63 55 49 41 33 30 26 26 26 25 27 26 24 26 27 25 23 25 19 23 27
83 84 84 78 82 77 72 69 69 70 69 66 60 54 44 38 34 29 28 26 28 29 29 27 29 28 24 26 24 22 28 30
69 81 82 80 78 71 67 67 69 70 68 63 62 56 45 42 38 33 30 30 30 31 31 29 29 29 29 25 25 30 33 32
10 69 82 83 79 73 68 67 68 69 65 62 61 58 47 45 42 36 34 34 33 32 33 31 30 31 32 29 29 34 32 33
24 27 72 79 77 74 74 72 69 69 66 61 62 59 51 49 44 41 40 38 35 35 34 32 31 33 33 33 33 34 33 32
5 15 42 63 68 68 67 66 67 68 66 62 62 62 56 51 49 47 44 40 37 36 35 35 34 35 36 38 37 37 36 33
Wind_Direction_850mb
151 155 168 161 150 144 136 139 140 143 140 136 132 127 105 92 72 58 61 59 28 18 53 6 34 38 37 36 31 8 11 35
159 173 175 160 156 150 148 143 138 132 127 131 129 117 88 76 67 49 40 46 29 17 45 22 30 31 32 29 28 26 16 43
171 173 183 173 164 161 152 147 135 125 119 116 118 69 73 55 48 39 35 21 21 31 41 39 31 26 26 25 26 32 31 27
169 176 188 182 172 167 158 155 134 141 163 164 166 168 178 206 40 12 14 18 16 21 28 24 26 19 17 21 23 27 37 36
180 185 192 185 178 171 168 155 159 182 183 164 152 177 185 261 324 331 351 5 5 6 12 11 12 13 12 13 21 25 25 33
184 191 199 194 187 184 174 171 172 188 174 157 165 169 191 229 278 308 326 337 343 351 348 1 2 5 5 8 10 24 19 21
189 196 203 201 195 184 190 192 183 179 178 182 190 207 231 241 260 278 292 307 325 335 330 339 349 354 0 359 2 10 11 8
187 191 197 203 205 194 196 197 190 198 192 198 199 214 215 233 224 233 264 289 309 316 311 321 333 345 356 347 352 350 357 354
189 193 197 205 210 209 200 197 202 208 202 203 210 212 219 231 243 246 257 277 290 297 296 310 321 331 343 334 333 338 341 343
191 194 199 206 210 214 211 199 210 215 210 212 216 218 229 235 242 254 264 278 287 288 291 297 306 315 331 328 323 327 330 335
191 196 200 206 213 220 217 205 213 222 221 222 223 224 232 241 248 261 269 279 282 283 285 290 299 308 318 321 319 308 321 324
192 198 204 208 214 219 220 209 211 223 229 229 228 228 233 237 246 259 270 276 271 275 279 285 292 297 305 309 308 303 309 312
194 198 204 206 212 215 217 214 213 223 231 234 234 231 230 234 248 261 272 276 274 275 276 279 282 287 295 299 299 298 308 314
199 201 205 208 209 212 216 215 217 223 229 233 235 235 234 236 246 258 268 272 275 272 274 278 281 286 287 289 294 304 311 311
203 205 207 209 208 210 213 216 221 224 229 234 238 236 235 237 245 254 261 269 269 269 271 275 280 281 283 284 295 290 305 310
208 205 204 205 204 206 212 218 222 226 230 235 240 238 234 236 242 250 259 266 267 267 270 273 275 278 280 283 288 292 300 308
244 215 210 206 208 211 213 217 224 230 232 240 239 236 235 240 242 249 257 264 266 266 268 269 272 276 282 280 283 288 295 306
250 250 216 212 216 221 222 225 231 235 235 240 239 237 238 241 244 249 255 261 264 264 268 270 274 276 279 282 286 289 297 304
260 247 229 223 223 224 228 229 234 234 237 239 241 238 240 241 244 248 253 258 264 266 268 271 270 276 280 282 284 289 296 297